RH
26 35 35 28 24 24 30 40 64 63 57 72 82 87 81 74 77 83 84 86 85 81 72 69 71 60 53 50 48 59 65 70 84 98 100 100 99 98 97 88 87 86 86 91
32 33 25 28 27 28 35 47 62 61 55 69 81 87 77 75 81 82 86 84 85 83 79 74 74 75 65 55 51 52 59 68 78 95 100 100 100 100 99 96 100 100 100 98
34 26 26 28 30 31 36 46 45 56 66 69 71 69 75 67 65 68 73 81 80 87 88 82 79 78 66 59 54 50 53 57 64 76 98 100 99 98 98 92 97 99 100 99
31 27 32 34 36 35 40 33 47 62 44 56 50 56 73 74 72 64 78 83 85 84 84 81 79 76 72 57 50 53 52 51 56 58 72 92 100 97 100 100 99 100 87 93
31 28 28 32 32 34 40 37 42 45 53 62 56 70 64 75 59 60 74 76 78 82 82 84 74 69 64 54 52 54 58 57 54 56 54 72 93 100 98 100 100 99 95 95
27 22 24 26 30 32 37 42 48 58 58 75 52 58 76 76 72 65 69 73 77 80 79 72 63 60 59 51 50 53 57 63 62 63 61 57 68 85 95 99 99 100 99 98
32 29 22 27 28 29 40 49 69 67 78 73 57 71 71 66 68 70 64 70 74 79 81 78 69 65 61 58 56 59 59 62 66 61 65 69 68 67 81 86 95 97 99 97
47 35 25 23 30 34 38 48 69 59 82 72 63 83 72 61 63 69 70 77 78 79 81 80 68 65 63 60 58 59 57 62 65 65 68 70 75 78 74 71 78 81 90 99
42 37 24 23 22 27 40 52 47 75 71 80 78 78 63 72 74 76 80 78 81 78 76 77 69 63 61 61 64 68 54 60 67 66 60 61 71 78 76 66 67 76 79 84
42 40 25 25 28 42 34 48 64 77 85 85 86 88 82 88 86 80 78 79 73 68 71 74 69 65 62 64 66 57 53 65 69 61 59 60 62 63 62 61 60 63 63 74
39 45 35 28 35 53 52 61 80 74 74 76 85 73 73 73 78 75 70 64 64 64 68 68 66 68 65 68 60 50 60 67 62 61 58 60 67 67 65 66 66 64 63 60
35 47 53 34 29 37 44 52 68 74 65 88 86 67 47 64 67 63 56 56 59 63 65 67 68 67 64 58 52 58 62 62 63 59 57 62 66 71 73 72 73 70 67 60
43 55 62 44 40 29 43 62 61 68 81 95 75 57 48 62 60 62 57 58 54 58 58 65 56 48 51 53 56 60 63 63 63 62 65 67 71 73 73 77 78 76 74 69
46 52 48 55 43 45 39 67 65 57 84 77 75 41 57 70 64 60 63 50 55 52 56 52 51 53 56 57 59 61 66 65 64 64 65 70 75 76 80 82 81 78 78 80
45 51 45 41 41 32 34 60 66 49 49 49 40 56 55 60 64 60 51 50 51 51 50 50 56 60 60 60 61 64 67 70 72 73 77 78 80 80 84 87 82 80 79 82
52 66 52 69 39 34 33 46 59 50 55 58 54 66 49 49 53 49 45 48 48 45 47 51 56 61 60 60 61 64 67 69 64 66 68 70 75 80 82 89 85 86 89 90
54 70 68 70 49 38 55 44 57 50 47 42 49 38 47 49 48 47 46 45 42 43 49 55 59 58 57 56 57 60 64 64 64 68 72 74 78 81 82 88 90 94 93 92
66 62 73 81 49 63 46 29 36 41 41 43 36 38 44 45 40 39 38 43 44 45 52 54 57 58 57 57 59 63 66 67 70 75 78 81 79 81 82 89 95 95 93 90
58 72 94 70 74 41 26 34 40 42 38 38 36 37 38 46 42 40 43 40 40 45 48 48 50 54 57 59 62 66 67 69 73 74 74 73 72 76 78 81 84 84 83 83
62 66 70 93 60 44 26 34 35 26 42 30 32 36 52 42 55 48 48 48 48 42 44 47 52 57 59 63 65 67 69 69 73 74 72 69 70 72 74 75 78 80 78 81
79 85 71 100 78 60 38 35 31 42 37 30 32 34 46 37 33 40 46 49 40 44 46 48 56 58 60 64 66 67 68 66 68 68 69 70 71 72 75 76 77 77 78 77
76 80 86 88 82 49 40 34 40 43 38 38 36 45 43 43 52 49 44 54 54 51 52 52 58 61 65 65 64 58 60 63 67 69 72 72 69 69 71 74 77 78 80 88
75 70 79 65 65 45 44 40 35 40 42 37 39 45 46 56 52 47 48 56 56 52 54 56 57 66 68 63 47 49 56 65 67 72 65 68 72 70 71 71 70 73 77 91
59 62 67 62 49 58 56 52 49 42 42 33 40 48 51 52 52 51 50 58 57 56 58 59 65 68 66 52 48 49 58 65 73 72 73 73 79 77 72 73 69 69 77 90
64 60 69 66 52 46 46 51 49 46 40 42 45 51 49 51 50 48 53 58 58 58 58 60 62 62 54 50 51 53 60 67 78 79 76 75 77 77 78 77 78 80 78 84
68 70 66 73 49 45 39 32 49 48 47 51 51 53 51 43 47 45 50 55 57 58 58 62 59 54 48 52 54 58 63 74 81 83 81 81 82 80 88 98 98 93 95 95
Wind_Speed
5 8 3 2 2 6 9 8 10 3 4 8 8 5 2 3 4 7 6 6 7 8 14 21 24 31 35 36 37 37 37 38 39 37 34 28 20 17 16 19 24 28 31 32
7 4 2 5 9 17 12 17 4 3 3 6 5 4 2 1 1 2 4 6 4 4 7 16 22 27 30 34 36 37 37 37 37 34 31 25 21 11 13 16 9 7 13 27
7 0 2 9 8 15 5 8 5 6 5 7 6 3 3 2 3 5 6 5 5 6 7 10 17 23 27 30 31 35 36 37 37 36 31 31 23 22 27 27 21 19 16 3
6 4 7 7 7 5 6 5 7 11 3 4 2 2 2 3 6 4 6 6 7 9 8 13 17 22 24 27 28 30 33 35 36 36 36 32 27 23 25 23 18 20 21 22
3 4 6 6 3 3 5 7 7 4 5 5 1 3 3 2 2 1 2 5 6 6 6 8 16 18 21 25 27 28 29 32 32 32 34 33 30 26 25 26 26 20 20 20
3 1 3 3 4 5 8 7 7 5 3 2 3 4 4 5 5 2 2 2 4 6 6 8 11 16 19 22 26 29 27 27 31 30 30 30 29 30 29 28 28 26 26 20
5 4 3 4 6 5 6 5 3 3 2 4 1 3 7 5 5 5 3 4 4 5 5 5 7 11 15 18 21 25 28 23 25 29 29 29 27 28 29 29 26 27 25 27
5 2 4 1 4 6 3 5 4 5 3 2 2 4 5 6 6 5 5 5 5 6 6 6 7 5 7 12 17 22 25 20 21 23 26 27 26 26 27 28 28 27 25 23
5 2 1 3 3 4 3 2 3 6 2 2 2 5 6 4 5 5 7 5 8 7 6 7 7 6 6 9 13 18 19 17 17 20 22 24 24 24 24 26 27 26 25 23
7 6 2 4 4 6 3 5 3 3 3 3 3 5 5 7 9 7 7 8 8 5 5 6 6 5 3 7 12 12 13 13 15 17 21 21 21 22 23 25 26 26 26 25
5 4 2 4 3 7 2 2 5 4 3 4 1 6 6 11 9 10 9 8 7 6 6 3 0 1 2 6 8 10 11 13 14 17 19 20 21 21 23 25 24 25 26 25
1 5 4 2 1 4 4 6 5 5 5 1 4 6 2 8 9 9 9 7 5 6 4 3 4 5 6 8 10 10 11 13 14 16 18 20 20 20 22 22 22 24 28 27
6 1 3 4 5 1 4 4 5 6 3 5 5 5 2 5 6 7 7 6 4 6 6 7 9 8 8 9 9 9 10 12 14 15 16 18 18 19 20 19 19 24 27 26
6 4 6 7 5 5 5 6 8 6 3 4 5 3 5 8 9 7 6 5 7 7 7 6 6 8 9 7 8 8 9 11 12 15 16 17 17 18 19 17 19 24 24 23
4 4 4 3 3 4 5 9 13 11 6 6 4 8 8 12 13 10 8 7 7 7 7 6 5 8 7 7 8 8 8 9 11 14 15 16 17 17 18 19 23 24 23 22
2 3 3 3 1 2 3 8 14 13 5 7 4 6 8 7 7 7 10 11 9 7 8 7 8 8 6 6 6 6 8 11 14 16 18 20 20 20 21 23 26 26 25 23
7 6 3 3 1 1 6 13 15 10 6 12 11 9 6 5 10 11 12 13 13 9 8 8 10 10 7 4 4 7 8 11 15 16 17 18 20 20 24 24 27 27 27 26
7 6 3 3 2 0 7 1 9 17 7 12 4 8 10 8 14 11 14 15 11 10 8 10 13 12 9 5 3 3 6 11 12 13 16 17 21 20 21 22 24 24 25 24
1 5 3 5 3 6 6 5 8 10 13 19 21 10 7 5 5 2 8 10 14 12 17 18 16 13 10 6 3 1 5 8 8 12 15 17 20 20 20 20 22 22 22 24
5 5 4 3 5 7 5 1 5 5 7 8 22 18 10 10 6 7 12 8 11 20 20 18 15 13 11 7 4 1 5 8 8 11 12 16 17 19 18 19 22 22 23 22
3 3 6 2 3 7 7 1 3 5 6 3 10 14 16 12 10 6 13 10 22 24 20 17 17 15 11 7 3 3 5 6 8 10 12 14 15 17 18 20 20 24 26 24
7 7 4 3 3 6 8 4 9 5 4 3 5 9 17 6 8 12 15 12 19 20 20 18 17 14 11 7 2 3 4 4 7 10 13 14 15 17 19 20 22 28 28 27
4 7 7 9 7 4 4 4 3 2 3 3 5 5 9 8 7 14 13 13 19 24 23 20 18 15 11 7 3 1 1 5 8 11 14 16 16 18 18 21 26 29 29 25
3 4 4 4 6 9 7 5 5 5 5 3 4 7 10 9 11 9 12 11 17 24 23 21 19 16 12 8 4 1 2 6 7 12 15 18 18 21 21 21 26 28 28 25
5 9 7 3 6 4 7 8 9 8 5 4 5 8 14 11 11 13 10 13 19 25 23 23 20 16 12 10 5 2 4 7 9 12 16 17 19 21 23 23 26 27 27 25
5 6 6 5 9 6 6 4 4 8 7 9 9 8 8 13 13 13 11 20 24 26 25 22 18 15 13 11 6 4 5 6 9 12 16 18 23 26 24 24 25 28 23 23
Wind_Direction
24 66 89 280 189 123 110 103 108 97 142 69 84 108 17 337 21 34 32 27 19 7 351 9 21 31 30 32 29 24 19 17 13 11 2 352 347 324 323 290 280 276 273 268
42 64 311 88 96 106 106 111 90 104 34 94 182 114 159 28 13 13 357 4 12 359 3 1 8 23 32 32 32 31 25 22 19 15 7 356 337 346 13 16 24 9 297 278
107 68 99 109 93 102 55 120 169 138 128 65 149 49 9 341 13 356 3 342 353 4 2 358 4 19 27 31 35 34 33 29 26 23 19 15 19 5 9 5 11 18 23 322
79 3 97 79 76 83 83 124 117 126 99 149 154 252 293 334 325 355 346 342 348 356 359 5 12 21 29 29 35 39 38 33 32 30 29 27 18 11 359 1 10 22 29 28
245 108 88 69 122 101 133 120 113 117 95 102 290 82 237 342 237 254 297 315 322 333 358 359 15 22 28 34 35 36 38 37 34 34 35 31 23 14 10 9 14 10 26 21
95 84 70 131 45 70 138 76 52 53 84 48 210 143 270 191 197 211 228 300 295 307 329 354 22 28 26 31 31 30 29 26 33 35 35 38 33 22 15 9 9 8 26 19
31 347 1 99 76 45 75 76 45 22 10 212 218 72 237 205 199 195 204 269 282 284 288 312 341 11 14 19 20 19 22 28 30 37 37 35 36 35 23 17 12 5 6 17
142 188 176 158 142 161 106 147 151 173 183 219 337 230 260 196 195 201 220 244 274 272 262 262 280 330 2 11 13 14 17 26 34 35 35 35 32 31 29 25 23 19 12 4
141 52 115 94 114 116 180 104 161 106 22 82 239 298 300 194 224 228 241 244 252 248 249 250 260 282 333 359 4 5 13 31 39 36 33 33 34 31 23 22 25 21 19 16
196 113 153 151 92 33 122 145 83 5 123 257 294 281 230 197 213 221 234 231 249 240 254 258 249 252 302 358 5 22 22 40 41 33 31 34 36 35 30 26 22 20 18 17
141 101 213 107 179 164 125 113 57 108 116 162 198 259 214 187 190 192 215 215 225 239 246 256 54 233 332 13 45 40 47 57 45 27 27 32 35 33 30 27 24 21 20 18
123 117 130 173 259 178 144 160 138 121 248 107 145 273 259 175 177 177 207 199 211 218 198 124 77 70 68 79 71 68 59 50 34 26 31 34 32 27 24 19 18 16 14 14
178 73 91 7 357 3 185 173 119 110 106 200 137 260 238 182 180 200 193 212 195 154 116 104 100 87 93 93 77 68 60 42 33 30 31 31 28 25 19 15 14 9 7 8
89 125 153 182 201 149 182 157 163 133 138 169 223 231 199 199 199 197 207 183 158 148 138 133 118 115 113 91 73 68 66 41 30 26 27 25 22 19 16 20 10 6 7 8
109 148 152 182 208 148 172 172 178 193 167 171 227 202 211 200 198 195 187 164 149 159 163 167 159 144 124 95 78 77 61 41 29 24 23 20 17 15 13 10 8 8 10 11
19 150 97 342 83 202 229 200 194 205 181 253 213 240 219 211 115 150 177 172 170 183 182 176 167 155 131 98 77 64 47 31 17 18 15 11 9 7 8 3 4 6 9 11
135 135 112 232 334 98 316 214 194 203 193 193 207 212 159 169 176 186 181 182 180 184 179 175 178 165 145 113 66 53 34 17 13 13 10 9 6 0 360 358 358 2 4 2
135 112 86 165 53 11 243 278 203 208 202 210 187 181 180 186 198 185 183 176 178 177 179 179 175 167 157 137 93 53 17 8 6 6 8 8 5 2 360 357 357 354 352 352
89 123 101 140 188 288 266 198 171 177 246 214 214 185 188 118 85 226 180 179 181 178 179 183 179 168 161 156 147 86 1 357 358 3 2 359 358 359 357 353 349 347 344 341
67 57 111 116 146 203 242 299 151 121 283 220 204 200 151 140 170 221 179 159 155 177 174 170 171 165 165 167 173 261 344 350 356 355 353 353 351 352 350 347 343 341 338 334
119 34 146 149 192 283 237 209 185 110 238 329 204 196 163 188 202 152 152 148 170 173 170 166 168 168 169 169 180 319 334 346 349 348 342 346 349 350 349 345 344 338 334 333
152 146 179 95 86 265 175 104 172 219 288 276 189 173 189 153 134 149 159 148 157 161 166 169 165 165 165 171 219 300 319 341 339 334 337 342 349 353 352 348 341 339 340 334
181 175 176 181 203 240 213 194 202 180 245 286 179 159 164 140 155 155 160 156 163 167 169 173 171 165 171 187 215 247 338 334 336 338 341 340 339 344 343 343 343 338 340 332
245 151 160 116 232 229 238 254 240 217 228 257 199 160 162 162 155 152 151 153 160 168 172 174 170 172 181 188 192 229 325 339 336 334 339 339 335 334 337 338 343 339 338 328
184 156 155 268 282 274 247 231 227 222 209 185 171 176 171 148 165 156 154 156 164 171 177 178 180 186 191 189 197 250 295 308 319 329 336 340 339 334 329 326 332 336 337 336
182 160 172 207 213 184 233 244 189 194 199 190 158 145 161 164 161 158 158 165 167 175 180 182 187 193 194 199 211 252 279 282 311 326 334 338 339 336 331 329 325 333 333 331